sat.trackr.live / text

‹ back to catalog

STARLINK-36164

NORAD 67127 · 2025-299AB

PAYLOAD ACTIVE UNKNOWN

§ Identity

Operator
Country
US
Launch date
2025-12-15
Launch site
AFETR
Launch vehicle
Mass (kg)
RCS (m²)

Purposes: comms

External: N2YO · Heavens-Above · Gunter

§ Orbital elements

Epoch: 2026-05-24T22:56:40.100352Z

Period
94.27 min
Inclination
42.9990°
Eccentricity
0.0000962
Mean motion
15.27584758 rev/d
Perigee alt
482.4 km
Apogee alt
483.7 km
Semi-major
6,861.2 km
B*
2.8223e-4
RAAN
97.9746°
Arg perigee
248.1964°
Mean anomaly
111.8786°
Rev number
2,478

§ Raw data

STARLINK-361641 67127U 25299AB  26144.95601968  .00007513  00000+0  28223-3 0  99962 67127  42.9990  97.9746 0000962 248.1964 111.8786 15.27584758 24786

JSON: /api/v1/satellites/67127 · /tle

For live sub-satellite position, see the globe view (requires WebGL).

§ Visibility from observer

Set your observer location to see the next 7 days of passes ≥ 10°. The values pass through the URL so the page stays shareable.

No JS? Fill the form by hand. The geolocation button needs JavaScript.